Time,TemperatureF,DewpointF,PressureIn,WindDirection,WindDirectionDegrees,WindSpeedMPH,WindSpeedGustMPH,Humidity,HourlyPrecipIn,Conditions,Clouds,dailyrainin,SoftwareType,DateUTC
2013-06-19 00:00:00,50.8,38.2,29.94,SW,225,1.3,1.3,62,0.00,,,0.00,WUHU216HW,2013-06-19 07:00:00,
2013-06-19 00:05:00,50.8,37.8,29.94,SW,225,0.2,1.3,61,0.00,,,0.00,WUHU216HW,2013-06-19 07:05:00,
2013-06-19 00:10:00,50.8,37.8,29.93,SW,225,0.4,1.3,61,0.00,,,0.00,WUHU216HW,2013-06-19 07:10:00,
2013-06-19 00:15:00,50.8,37.8,29.93,SW,225,0.9,1.1,61,0.00,,,0.00,WUHU216HW,2013-06-19 07:15:00,
2013-06-19 00:20:00,50.8,38.2,29.93,SW,225,1.1,1.8,62,0.00,,,0.00,WUHU216HW,2013-06-19 07:20:00,
2013-06-19 00:25:00,50.4,37.8,29.93,SW,225,0.0,1.8,62,0.00,,,0.00,WUHU216HW,2013-06-19 07:25:00,
2013-06-19 00:30:00,50.4,37.8,29.93,SW,225,0.0,1.1,62,0.00,,,0.00,WUHU216HW,2013-06-19 07:30:00,
2013-06-19 00:35:00,50.2,38.1,29.93,SW,225,0.9,1.1,63,0.00,,,0.00,WUHU216HW,2013-06-19 07:35:00,
2013-06-19 00:40:00,50.2,38.1,29.93,SW,225,0.2,1.1,63,0.00,,,0.00,WUHU216HW,2013-06-19 07:40:00,
2013-06-19 00:45:00,50.2,38.1,29.93,SW,225,0.4,1.1,63,0.00,,,0.00,WUHU216HW,2013-06-19 07:45:00,
2013-06-19 00:50:00,50.2,38.1,29.93,SW,225,0.9,1.1,63,0.00,,,0.00,WUHU216HW,2013-06-19 07:50:00,
2013-06-19 00:55:00,50.0,37.9,29.93,SW,225,0.4,1.1,63,0.00,,,0.00,WUHU216HW,2013-06-19 07:55:00,
2013-06-19 01:00:00,50.0,37.9,29.93,SW,225,1.8,3.1,63,0.00,,,0.00,WUHU216HW,2013-06-19 08:00:00,
2013-06-19 01:05:00,50.0,38.4,29.93,SW,225,1.3,3.1,64,0.00,,,0.00,WUHU216HW,2013-06-19 08:05:00,
2013-06-19 01:10:00,50.0,38.4,29.92,SW,225,1.8,3.4,64,0.00,,,0.00,WUHU216HW,2013-06-19 08:10:00,
2013-06-19 01:15:00,50.0,38.4,29.92,SW,225,2.0,4.3,64,0.00,,,0.00,WUHU216HW,2013-06-19 08:15:00,
2013-06-19 01:20:00,50.2,38.4,29.92,WSW,248,1.1,4.3,64,0.00,,,0.00,WUHU216HW,2013-06-19 08:20:00,
2013-06-19 01:25:00,50.0,38.4,29.92,WSW,248,1.8,4.0,64,0.00,,,0.00,WUHU216HW,2013-06-19 08:25:00,
2013-06-19 01:30:00,50.0,38.4,29.92,WSW,248,1.3,4.0,64,0.00,,,0.00,WUHU216HW,2013-06-19 08:30:00,
2013-06-19 01:35:00,50.0,38.7,29.92,SW,225,1.8,4.0,65,0.00,,,0.00,WUHU216HW,2013-06-19 08:35:00,
2013-06-19 01:40:00,50.0,38.4,29.92,WSW,248,2.2,4.9,64,0.00,,,0.00,WUHU216HW,2013-06-19 08:40:00,
2013-06-19 01:45:00,49.9,38.5,29.92,WSW,248,1.8,4.9,65,0.00,,,0.00,WUHU216HW,2013-06-19 08:45:00,
2013-06-19 01:50:00,49.9,38.2,29.92,SSW,203,1.8,4.5,64,0.00,,,0.00,WUHU216HW,2013-06-19 08:50:00,
2013-06-19 01:55:00,49.7,38.3,29.92,SSW,203,1.1,4.5,65,0.00,,,0.00,WUHU216HW,2013-06-19 08:55:00,
2013-06-19 02:00:00,49.7,38.3,29.91,SSW,203,0.4,3.4,65,0.00,,,0.00,WUHU216HW,2013-06-19 09:00:00,
2013-06-19 02:05:00,49.7,38.3,29.91,SSW,203,1.3,3.4,65,0.00,,,0.00,WUHU216HW,2013-06-19 09:05:00,
2013-06-19 02:10:00,49.7,38.3,29.91,SSW,203,0.4,3.4,65,0.00,,,0.00,WUHU216HW,2013-06-19 09:10:00,
2013-06-19 02:15:00,49.7,38.0,29.91,SSW,203,1.3,1.6,64,0.00,,,0.00,WUHU216HW,2013-06-19 09:15:00,
2013-06-19 02:20:00,49.7,38.3,29.91,SSW,203,1.1,2.9,65,0.00,,,0.00,WUHU216HW,2013-06-19 09:20:00,
2013-06-19 02:25:00,49.7,38.3,29.92,SW,225,3.8,3.8,65,0.00,,,0.00,WUHU216HW,2013-06-19 09:25:00,
2013-06-19 02:30:00,49.5,38.2,29.92,SW,225,2.2,4.7,65,0.00,,,0.00,WUHU216HW,2013-06-19 09:30:00,
2013-06-19 02:35:00,49.3,38.0,29.91,SW,225,2.2,4.7,65,0.00,,,0.00,WUHU216HW,2013-06-19 09:35:00,
2013-06-19 02:40:00,49.3,38.0,29.92,South,180,2.9,4.0,65,0.00,,,0.00,WUHU216HW,2013-06-19 09:40:00,
2013-06-19 02:45:00,49.5,38.2,29.91,SW,225,2.2,6.0,65,0.00,,,0.00,WUHU216HW,2013-06-19 09:45:00,
2013-06-19 02:50:00,49.5,38.2,29.91,SSW,203,2.5,6.0,65,0.00,,,0.00,WUHU216HW,2013-06-19 09:50:00,
2013-06-19 02:55:00,49.3,38.0,29.91,SW,225,3.4,6.3,65,0.00,,,0.00,WUHU216HW,2013-06-19 09:55:00,
2013-06-19 03:00:00,49.5,38.6,29.91,SSW,203,2.2,6.3,66,0.00,,,0.00,WUHU216HW,2013-06-19 10:00:00,
2013-06-19 03:05:00,49.3,38.8,29.91,SSW,203,2.0,4.0,67,0.00,,,0.00,WUHU216HW,2013-06-19 10:05:00,
2013-06-19 03:10:00,49.3,39.6,29.91,SSW,203,1.8,4.0,69,0.00,,,0.00,WUHU216HW,2013-06-19 10:10:00,
2013-06-19 03:15:00,49.0,39.6,29.91,SSW,203,3.4,3.4,70,0.00,,,0.00,WUHU216HW,2013-06-19 10:15:00,
2013-06-19 03:20:00,49.0,38.8,29.91,SSW,203,2.7,4.7,68,0.00,,,0.00,WUHU216HW,2013-06-19 10:20:00,
2013-06-19 03:25:00,49.0,38.8,29.91,SW,225,4.0,4.7,68,0.00,,,0.00,WUHU216HW,2013-06-19 10:25:00,
2013-06-19 03:30:00,49.0,38.4,29.91,SSW,203,4.7,5.6,67,0.00,,,0.00,WUHU216HW,2013-06-19 10:30:00,
2013-06-19 03:35:00,49.0,38.4,29.92,SW,225,3.6,5.6,67,0.00,,,0.00,WUHU216HW,2013-06-19 10:35:00,
2013-06-19 03:40:00,49.0,38.4,29.91,SW,225,0.7,4.7,67,0.00,,,0.00,WUHU216HW,2013-06-19 10:40:00,
2013-06-19 03:45:00,49.0,38.1,29.91,SW,225,2.5,5.4,66,0.00,,,0.00,WUHU216HW,2013-06-19 10:45:00,
2013-06-19 03:50:00,49.0,38.4,29.91,WSW,248,3.4,5.4,67,0.00,,,0.00,WUHU216HW,2013-06-19 10:50:00,
2013-06-19 03:55:00,49.0,38.1,29.91,SW,225,3.4,4.7,66,0.00,,,0.00,WUHU216HW,2013-06-19 10:55:00,
2013-06-19 04:00:00,49.1,38.3,29.91,SW,225,2.5,4.5,66,0.00,,,0.00,WUHU216HW,2013-06-19 11:00:00,
2013-06-19 04:05:00,49.0,38.4,29.91,SW,225,2.5,3.6,67,0.00,,,0.00,WUHU216HW,2013-06-19 11:05:00,
2013-06-19 04:10:00,49.0,38.4,29.91,SSW,203,1.8,4.0,67,0.00,,,0.00,WUHU216HW,2013-06-19 11:10:00,
2013-06-19 04:15:00,48.8,38.6,29.91,SW,225,6.3,6.3,68,0.00,,,0.00,WUHU216HW,2013-06-19 11:15:00,
2013-06-19 04:20:00,48.8,38.6,29.91,SW,225,3.4,6.3,68,0.00,,,0.00,WUHU216HW,2013-06-19 11:20:00,
2013-06-19 04:25:00,48.6,38.5,29.91,SSW,203,4.7,6.3,68,0.00,,,0.00,WUHU216HW,2013-06-19 11:25:00,
2013-06-19 04:30:00,48.6,38.5,29.91,SW,225,3.1,4.9,68,0.00,,,0.00,WUHU216HW,2013-06-19 11:30:00,
2013-06-19 04:35:00,48.6,38.5,29.91,SSW,203,5.4,6.0,68,0.00,,,0.00,WUHU216HW,2013-06-19 11:35:00,
2013-06-19 04:40:00,48.4,37.9,29.91,SW,225,2.9,6.9,67,0.00,,,0.00,WUHU216HW,2013-06-19 11:40:00,
2013-06-19 04:45:00,48.4,37.5,29.91,WSW,248,4.7,6.9,66,0.00,,,0.00,WUHU216HW,2013-06-19 11:45:00,
2013-06-19 04:50:00,48.4,37.5,29.91,SW,225,3.4,6.5,66,0.00,,,0.00,WUHU216HW,2013-06-19 11:50:00,
2013-06-19 04:55:00,48.2,37.0,29.91,SW,225,4.3,7.2,65,0.00,,,0.00,WUHU216HW,2013-06-19 11:55:00,
2013-06-19 05:00:00,48.2,37.0,29.91,SW,225,5.4,9.8,65,0.00,,,0.00,WUHU216HW,2013-06-19 12:00:00,
2013-06-19 05:05:00,48.2,36.6,29.91,SW,225,6.9,9.8,64,0.00,,,0.00,WUHU216HW,2013-06-19 12:05:00,
2013-06-19 05:10:00,48.2,36.3,29.91,WSW,248,7.8,8.9,63,0.00,,,0.00,WUHU216HW,2013-06-19 12:10:00,
2013-06-19 05:15:00,48.2,36.3,29.91,SSW,203,8.7,11.9,63,0.00,,,0.00,WUHU216HW,2013-06-19 12:15:00,
2013-06-19 05:20:00,48.2,36.3,29.91,WSW,248,8.5,11.9,63,0.00,,,0.00,WUHU216HW,2013-06-19 12:20:00,
2013-06-19 05:25:00,48.1,36.1,29.91,SSW,203,5.4,8.7,63,0.00,,,0.00,WUHU216HW,2013-06-19 12:25:00,
2013-06-19 05:30:00,48.1,36.5,29.91,West,270,3.4,8.7,64,0.00,,,0.00,WUHU216HW,2013-06-19 12:30:00,
2013-06-19 05:35:00,47.9,36.3,29.91,WSW,248,6.0,8.7,64,0.00,,,0.00,WUHU216HW,2013-06-19 12:35:00,
2013-06-19 05:40:00,47.9,36.3,29.91,West,270,5.4,8.7,64,0.00,,,0.00,WUHU216HW,2013-06-19 12:40:00,
2013-06-19 05:45:00,47.9,36.3,29.91,SSW,203,7.4,8.7,64,0.00,,,0.00,WUHU216HW,2013-06-19 12:45:00,
2013-06-19 05:50:00,47.9,36.3,29.91,WNW,293,4.5,8.5,64,0.00,,,0.00,WUHU216HW,2013-06-19 12:50:00,
2013-06-19 05:55:00,47.9,36.3,29.91,West,270,4.7,9.2,64,0.00,,,0.00,WUHU216HW,2013-06-19 12:55:00,
2013-06-19 06:00:00,47.9,36.3,29.91,SW,225,6.3,10.7,64,0.00,,,0.00,WUHU216HW,2013-06-19 13:00:00,
2013-06-19 06:05:00,47.9,36.3,29.91,SW,225,6.9,10.7,64,0.00,,,0.00,WUHU216HW,2013-06-19 13:05:00,
2013-06-19 06:10:00,47.9,35.9,29.91,WSW,248,1.8,9.8,63,0.00,,,0.00,WUHU216HW,2013-06-19 13:10:00,
2013-06-19 06:15:00,48.1,36.1,29.91,WSW,248,6.5,6.9,63,0.00,,,0.00,WUHU216HW,2013-06-19 13:15:00,
2013-06-19 06:20:00,48.1,36.1,29.91,SW,225,2.9,6.9,63,0.00,,,0.00,WUHU216HW,2013-06-19 13:20:00,
2013-06-19 06:25:00,48.2,36.3,29.92,WSW,248,4.9,9.6,63,0.00,,,0.00,WUHU216HW,2013-06-19 13:25:00,
2013-06-19 06:30:00,48.2,36.3,29.92,WSW,248,6.9,9.6,63,0.00,,,0.00,WUHU216HW,2013-06-19 13:30:00,
2013-06-19 06:35:00,48.4,36.4,29.92,SW,225,5.8,8.9,63,0.00,,,0.00,WUHU216HW,2013-06-19 13:35:00,
2013-06-19 06:40:00,48.6,36.2,29.92,West,270,5.4,8.3,62,0.00,,,0.00,WUHU216HW,2013-06-19 13:40:00,
2013-06-19 06:45:00,48.8,36.4,29.92,WSW,248,4.7,7.2,62,0.00,,,0.00,WUHU216HW,2013-06-19 13:45:00,
2013-06-19 06:50:00,49.0,36.6,29.92,West,270,2.5,7.2,62,0.00,,,0.00,WUHU216HW,2013-06-19 13:50:00,
2013-06-19 06:55:00,49.1,36.7,29.92,WSW,248,6.9,8.3,62,0.00,,,0.00,WUHU216HW,2013-06-19 13:55:00,
2013-06-19 07:00:00,49.1,36.3,29.92,WSW,248,4.7,8.9,61,0.00,,,0.00,WUHU216HW,2013-06-19 14:00:00,
2013-06-19 07:05:00,49.3,36.1,29.92,WSW,248,1.8,8.9,60,0.00,,,0.00,WUHU216HW,2013-06-19 14:05:00,
2013-06-19 07:10:00,49.7,36.4,29.92,WSW,248,2.0,9.4,60,0.00,,,0.00,WUHU216HW,2013-06-19 14:10:00,
2013-06-19 07:14:00,49.9,36.5,29.92,WNW,293,2.5,9.4,60,0.00,,,0.00,WUHU216HW,2013-06-19 14:14:00,
2013-06-19 07:19:00,50.0,36.3,29.92,West,270,4.0,7.6,59,0.00,,,0.00,WUHU216HW,2013-06-19 14:19:00,
2013-06-19 07:24:00,50.0,36.3,29.93,WSW,248,2.7,7.6,59,0.00,,,0.00,WUHU216HW,2013-06-19 14:24:00,
2013-06-19 07:29:00,50.2,37.3,29.93,SSW,203,3.8,6.3,61,0.00,,,0.00,WUHU216HW,2013-06-19 14:29:00,
2013-06-19 07:34:00,50.2,37.7,29.93,SW,225,1.8,6.3,62,0.00,,,0.00,WUHU216HW,2013-06-19 14:34:00,
2013-06-19 07:39:00,50.4,37.4,29.93,SW,225,4.3,5.4,61,0.00,,,0.00,WUHU216HW,2013-06-19 14:39:00,
2013-06-19 07:44:00,50.4,37.4,29.93,SSW,203,3.6,5.8,61,0.00,,,0.00,WUHU216HW,2013-06-19 14:44:00,
2013-06-19 07:49:00,50.4,37.1,29.93,SW,225,6.9,8.7,60,0.00,,,0.00,WUHU216HW,2013-06-19 14:49:00,
2013-06-19 07:54:00,50.8,36.9,29.93,West,270,3.6,8.7,59,0.00,,,0.00,WUHU216HW,2013-06-19 14:54:00,
2013-06-19 07:59:00,50.8,36.9,29.93,West,270,7.4,9.2,59,0.00,,,0.00,WUHU216HW,2013-06-19 14:59:00,
2013-06-19 08:04:00,50.9,37.1,29.93,SW,225,2.5,9.2,59,0.00,,,0.00,WUHU216HW,2013-06-19 15:04:00,
2013-06-19 08:09:00,50.9,37.5,29.93,WSW,248,7.8,8.1,60,0.00,,,0.00,WUHU216HW,2013-06-19 15:09:00,
2013-06-19 08:14:00,50.8,37.8,29.93,SW,225,4.7,9.2,61,0.00,,,0.00,WUHU216HW,2013-06-19 15:14:00,
2013-06-19 08:19:00,50.8,37.8,29.93,WSW,248,5.6,9.8,61,0.00,,,0.00,WUHU216HW,2013-06-19 15:19:00,
2013-06-19 08:24:00,50.8,37.8,29.93,SW,225,3.4,9.8,61,0.00,,,0.00,WUHU216HW,2013-06-19 15:24:00,
2013-06-19 08:29:00,50.9,38.0,29.93,SW,225,8.5,9.2,61,0.00,,,0.00,WUHU216HW,2013-06-19 15:29:00,
2013-06-19 08:34:00,51.1,38.1,29.93,South,180,4.9,9.2,61,0.00,,,0.00,WUHU216HW,2013-06-19 15:34:00,
2013-06-19 08:39:00,51.1,38.5,29.93,West,270,6.3,10.1,62,0.00,,,0.00,WUHU216HW,2013-06-19 15:39:00,
2013-06-19 08:44:00,51.1,38.1,29.93,SW,225,4.0,10.1,61,0.00,,,0.00,WUHU216HW,2013-06-19 15:44:00,
2013-06-19 08:49:00,51.1,38.1,29.93,WSW,248,4.5,9.8,61,0.00,,,0.00,WUHU216HW,2013-06-19 15:49:00,
2013-06-19 08:54:00,51.5,38.4,29.93,SSE,158,5.6,9.8,61,0.00,,,0.00,WUHU216HW,2013-06-19 15:54:00,
2013-06-19 08:59:00,51.5,38.0,29.93,SW,225,11.0,11.2,60,0.00,,,0.00,WUHU216HW,2013-06-19 15:59:00,
2013-06-19 09:04:00,51.3,37.9,29.93,WSW,248,8.1,12.1,60,0.00,,,0.00,WUHU216HW,2013-06-19 16:04:00,
2013-06-19 09:09:00,51.1,38.1,29.93,WSW,248,5.6,14.3,61,0.00,,,0.00,WUHU216HW,2013-06-19 16:09:00,
2013-06-19 09:14:00,51.5,38.0,29.93,WNW,293,7.6,14.3,60,0.00,,,0.00,WUHU216HW,2013-06-19 16:14:00,
2013-06-19 09:19:00,52.2,37.8,29.93,West,270,8.3,15.0,58,0.00,,,0.00,WUHU216HW,2013-06-19 16:19:00,
2013-06-19 09:24:00,52.2,37.8,29.93,SSW,203,9.6,15.0,58,0.00,,,0.00,WUHU216HW,2013-06-19 16:24:00,
2013-06-19 09:29:00,52.6,37.7,29.93,SW,225,10.5,12.8,57,0.00,,,0.00,WUHU216HW,2013-06-19 16:29:00,
2013-06-19 09:34:00,52.2,37.8,29.93,SW,225,7.6,18.6,58,0.00,,,0.00,WUHU216HW,2013-06-19 16:34:00,
2013-06-19 09:39:00,52.4,37.5,29.92,West,270,9.4,18.6,57,0.00,,,0.00,WUHU216HW,2013-06-19 16:39:00,
2013-06-19 09:44:00,52.7,37.9,29.92,WSW,248,8.7,15.0,57,0.00,,,0.00,WUHU216HW,2013-06-19 16:44:00,
2013-06-19 09:49:00,53.6,37.8,29.92,SW,225,6.9,15.0,55,0.00,,,0.00,WUHU216HW,2013-06-19 16:49:00,
2013-06-19 09:54:00,54.0,37.6,29.92,WNW,293,8.7,15.0,54,0.00,,,0.00,WUHU216HW,2013-06-19 16:54:00,
2013-06-19 09:59:00,54.0,36.7,29.91,West,270,4.0,13.4,52,0.00,,,0.00,WUHU216HW,2013-06-19 16:59:00,
2013-06-19 10:04:00,54.0,37.2,29.91,WSW,248,3.8,14.8,53,0.00,,,0.00,WUHU216HW,2013-06-19 17:04:00,
2013-06-19 10:09:00,54.2,36.9,29.91,WSW,248,16.3,16.3,52,0.00,,,0.00,WUHU216HW,2013-06-19 17:09:00,
2013-06-19 10:14:00,55.1,37.7,29.91,SW,225,14.3,17.4,52,0.00,,,0.00,WUHU216HW,2013-06-19 17:14:00,
2013-06-19 10:19:00,56.3,38.0,29.91,SW,225,9.2,17.4,50,0.00,,,0.00,WUHU216HW,2013-06-19 17:19:00,
2013-06-19 10:24:00,56.5,38.2,29.92,WSW,248,12.1,15.7,50,0.00,,,0.00,WUHU216HW,2013-06-19 17:24:00,
2013-06-19 10:29:00,56.9,38.5,29.92,SW,225,3.6,15.0,50,0.00,,,0.00,WUHU216HW,2013-06-19 17:29:00,
2013-06-19 10:34:00,57.6,38.6,29.92,WSW,248,6.5,15.0,49,0.00,,,0.00,WUHU216HW,2013-06-19 17:34:00,
2013-06-19 10:39:00,58.7,39.1,29.92,WSW,248,9.2,11.4,48,0.00,,,0.00,WUHU216HW,2013-06-19 17:39:00,
2013-06-19 10:44:00,57.6,38.6,29.92,WSW,248,14.8,14.8,49,0.00,,,0.00,WUHU216HW,2013-06-19 17:44:00,
2013-06-19 10:49:00,58.5,38.9,29.93,SSW,203,10.1,14.8,48,0.00,,,0.00,WUHU216HW,2013-06-19 17:49:00,
2013-06-19 10:54:00,59.4,39.1,29.92,WSW,248,9.2,14.8,47,0.00,,,0.00,WUHU216HW,2013-06-19 17:54:00,
2013-06-19 10:59:00,59.0,38.8,29.92,SW,225,11.2,15.7,47,0.00,,,0.00,WUHU216HW,2013-06-19 17:59:00,
2013-06-19 11:04:00,59.0,39.3,29.92,SSW,203,10.3,15.7,48,0.00,,,0.00,WUHU216HW,2013-06-19 18:04:00,
2013-06-19 11:09:00,58.9,39.2,29.93,SSW,203,9.8,13.2,48,0.00,,,0.00,WUHU216HW,2013-06-19 18:09:00,
2013-06-19 11:14:00,59.2,39.0,29.93,WSW,248,11.0,13.0,47,0.00,,,0.00,WUHU216HW,2013-06-19 18:14:00,
2013-06-19 11:19:00,59.4,38.5,29.92,SW,225,9.2,13.0,46,0.00,,,0.00,WUHU216HW,2013-06-19 18:19:00,
2013-06-19 11:24:00,59.4,38.5,29.92,WSW,248,12.1,17.0,46,0.00,,,0.00,WUHU216HW,2013-06-19 18:24:00,
2013-06-19 11:29:00,59.8,38.9,29.92,SW,225,6.3,17.0,46,0.00,,,0.00,WUHU216HW,2013-06-19 18:29:00,
2013-06-19 11:34:00,59.0,37.6,29.92,SW,225,13.4,15.0,45,0.00,,,0.00,WUHU216HW,2013-06-19 18:34:00,
2013-06-19 11:39:00,59.4,38.5,29.92,SW,225,10.7,15.0,46,0.00,,,0.00,WUHU216HW,2013-06-19 18:39:00,
2013-06-19 11:44:00,60.1,38.6,29.92,SW,225,12.8,16.8,45,0.00,,,0.00,WUHU216HW,2013-06-19 18:44:00,
2013-06-19 11:49:00,59.8,37.7,29.93,SW,225,12.8,16.8,44,0.00,,,0.00,WUHU216HW,2013-06-19 18:49:00,
2013-06-19 11:54:00,60.5,38.3,29.92,WSW,248,7.8,15.4,44,0.00,,,0.00,WUHU216HW,2013-06-19 18:54:00,
2013-06-19 11:59:00,61.4,38.6,29.92,WSW,248,11.0,13.9,43,0.00,,,0.00,WUHU216HW,2013-06-19 18:59:00,
2013-06-19 12:04:00,61.0,38.3,29.92,SSW,203,9.8,18.8,43,0.00,,,0.00,WUHU216HW,2013-06-19 19:04:00,
2013-06-19 12:09:00,60.8,37.5,29.92,WSW,248,10.3,18.8,42,0.00,,,0.00,WUHU216HW,2013-06-19 19:09:00,
2013-06-19 12:14:00,59.9,37.9,29.93,WSW,248,13.9,17.7,44,0.00,,,0.00,WUHU216HW,2013-06-19 19:14:00,
2013-06-19 12:19:00,60.1,38.0,29.92,West,270,14.1,17.7,44,0.00,,,0.00,WUHU216HW,2013-06-19 19:19:00,
2013-06-19 12:24:00,60.3,38.2,29.93,WNW,293,7.2,15.7,44,0.00,,,0.00,WUHU216HW,2013-06-19 19:24:00,
2013-06-19 12:29:00,60.7,37.4,29.93,WNW,293,10.5,15.7,42,0.00,,,0.00,WUHU216HW,2013-06-19 19:29:00,
2013-06-19 12:34:00,60.7,37.9,29.92,South,180,9.2,16.1,43,0.00,,,0.00,WUHU216HW,2013-06-19 19:34:00,
2013-06-19 12:39:00,61.0,37.7,29.93,WSW,248,9.4,16.1,42,0.00,,,0.00,WUHU216HW,2013-06-19 19:39:00,
2013-06-19 12:44:00,60.1,38.0,29.93,SW,225,9.8,16.3,44,0.00,,,0.00,WUHU216HW,2013-06-19 19:44:00,
2013-06-19 12:49:00,60.1,36.9,29.93,West,270,11.9,16.3,42,0.00,,,0.00,WUHU216HW,2013-06-19 19:49:00,
2013-06-19 12:54:00,61.6,37.6,29.93,SW,225,14.3,15.7,41,0.00,,,0.00,WUHU216HW,2013-06-19 19:54:00,
2013-06-19 12:59:00,61.0,37.7,29.93,WSW,248,6.9,20.8,42,0.00,,,0.00,WUHU216HW,2013-06-19 19:59:00,
2013-06-19 13:04:00,60.7,37.9,29.93,SW,225,8.9,20.8,43,0.00,,,0.00,WUHU216HW,2013-06-19 20:04:00,
2013-06-19 13:09:00,61.9,38.5,29.93,SSW,203,8.3,18.3,42,0.00,,,0.00,WUHU216HW,2013-06-19 20:09:00,
2013-06-19 13:14:00,61.9,38.5,29.93,WSW,248,13.6,16.8,42,0.00,,,0.00,WUHU216HW,2013-06-19 20:14:00,
2013-06-19 13:19:00,61.7,39.5,29.93,SSW,203,12.1,16.8,44,0.00,,,0.00,WUHU216HW,2013-06-19 20:19:00,
2013-06-19 13:24:00,61.2,37.3,29.94,WSW,248,13.4,18.3,41,0.00,,,0.00,WUHU216HW,2013-06-19 20:24:00,
2013-06-19 13:29:00,60.3,37.6,29.94,West,270,16.3,19.2,43,0.00,,,0.00,WUHU216HW,2013-06-19 20:29:00,
2013-06-19 13:34:00,61.4,38.0,29.94,SW,225,12.5,19.2,42,0.00,,,0.00,WUHU216HW,2013-06-19 20:34:00,
2013-06-19 13:39:00,60.8,36.9,29.94,West,270,12.1,19.5,41,0.00,,,0.00,WUHU216HW,2013-06-19 20:39:00,
2013-06-19 13:44:00,61.7,37.7,29.94,South,180,10.3,19.5,41,0.00,,,0.00,WUHU216HW,2013-06-19 20:44:00,
2013-06-19 13:49:00,61.9,37.4,29.94,WSW,248,16.8,18.3,40,0.00,,,0.00,WUHU216HW,2013-06-19 20:49:00,
2013-06-19 13:54:00,61.6,38.7,29.94,SW,225,16.3,18.3,43,0.00,,,0.00,WUHU216HW,2013-06-19 20:54:00,
2013-06-19 13:59:00,62.1,38.6,29.94,SW,225,12.1,17.0,42,0.00,,,0.00,WUHU216HW,2013-06-19 20:59:00,
2013-06-19 14:04:00,61.2,38.4,29.94,WSW,248,11.6,20.6,43,0.00,,,0.00,WUHU216HW,2013-06-19 21:04:00,
2013-06-19 14:09:00,61.7,38.9,29.94,SSW,203,10.5,20.6,43,0.00,,,0.00,WUHU216HW,2013-06-19 21:09:00,
2013-06-19 14:14:00,61.4,38.6,29.94,WSW,248,10.1,17.2,43,0.00,,,0.00,WUHU216HW,2013-06-19 21:14:00,
2013-06-19 14:19:00,62.3,39.4,29.94,WSW,248,7.6,16.1,43,0.00,,,0.00,WUHU216HW,2013-06-19 21:19:00,
2013-06-19 14:24:00,62.1,39.3,29.94,SW,225,12.8,17.2,43,0.00,,,0.00,WUHU216HW,2013-06-19 21:24:00,
2013-06-19 14:29:00,61.9,39.6,29.94,WSW,248,12.1,17.2,44,0.00,,,0.00,WUHU216HW,2013-06-19 21:29:00,
2013-06-19 14:34:00,62.6,39.7,29.94,WSW,248,11.4,16.8,43,0.00,,,0.00,WUHU216HW,2013-06-19 21:34:00,
2013-06-19 14:39:00,62.6,38.5,29.94,West,270,18.1,18.6,41,0.00,,,0.00,WUHU216HW,2013-06-19 21:39:00,
2013-06-19 14:44:00,62.6,38.0,29.94,WNW,293,7.6,18.6,40,0.00,,,0.00,WUHU216HW,2013-06-19 21:44:00,
2013-06-19 14:49:00,62.8,38.2,29.95,WSW,248,7.4,18.1,40,0.00,,,0.00,WUHU216HW,2013-06-19 21:49:00,
2013-06-19 14:54:00,62.3,39.4,29.94,SW,225,15.4,15.7,43,0.00,,,0.00,WUHU216HW,2013-06-19 21:54:00,
2013-06-19 14:59:00,62.3,39.4,29.95,SW,225,16.8,19.2,43,0.00,,,0.00,WUHU216HW,2013-06-19 21:59:00,
2013-06-19 15:04:00,61.6,39.3,29.95,SW,225,17.0,19.2,44,0.00,,,0.00,WUHU216HW,2013-06-19 22:04:00,
2013-06-19 15:09:00,62.3,39.4,29.95,WSW,248,15.7,19.2,43,0.00,,,0.00,WUHU216HW,2013-06-19 22:09:00,
2013-06-19 15:14:00,61.6,38.7,29.95,WSW,248,15.4,18.6,43,0.00,,,0.00,WUHU216HW,2013-06-19 22:14:00,
2013-06-19 15:19:00,61.9,39.6,29.95,SSW,203,12.1,18.6,44,0.00,,,0.00,WUHU216HW,2013-06-19 22:19:00,
2013-06-19 15:24:00,61.9,39.6,29.95,WNW,293,12.1,16.3,44,0.00,,,0.00,WUHU216HW,2013-06-19 22:24:00,
2013-06-19 15:29:00,61.4,39.7,29.95,WSW,248,13.2,16.3,45,0.00,,,0.00,WUHU216HW,2013-06-19 22:29:00,
2013-06-19 15:34:00,61.4,38.6,29.96,SSW,203,10.7,19.9,43,0.00,,,0.00,WUHU216HW,2013-06-19 22:34:00,
2013-06-19 15:39:00,62.3,39.4,29.96,West,270,9.6,19.9,43,0.00,,,0.00,WUHU216HW,2013-06-19 22:39:00,
2013-06-19 15:44:00,61.6,39.3,29.96,SW,225,20.8,20.8,44,0.00,,,0.00,WUHU216HW,2013-06-19 22:44:00,
2013-06-19 15:49:00,60.8,39.2,29.96,WNW,293,10.7,20.8,45,0.00,,,0.00,WUHU216HW,2013-06-19 22:49:00,
2013-06-19 15:54:00,61.0,39.4,29.96,West,270,12.3,20.8,45,0.00,,,0.00,WUHU216HW,2013-06-19 22:54:00,
2013-06-19 15:59:00,60.8,38.7,29.96,SW,225,13.6,17.0,44,0.00,,,0.00,WUHU216HW,2013-06-19 22:59:00,
2013-06-19 16:04:00,61.2,39.0,29.97,South,180,6.5,17.2,44,0.00,,,0.00,WUHU216HW,2013-06-19 23:04:00,
2013-06-19 16:09:00,61.9,39.1,29.96,West,270,8.7,17.2,43,0.00,,,0.00,WUHU216HW,2013-06-19 23:09:00,
2013-06-19 16:14:00,62.3,39.4,29.96,SSW,203,9.6,16.6,43,0.00,,,0.00,WUHU216HW,2013-06-19 23:14:00,
2013-06-19 16:19:00,62.3,39.4,29.96,NNE,23,7.2,14.5,43,0.00,,,0.00,WUHU216HW,2013-06-19 23:19:00,
2013-06-19 16:24:00,63.0,38.9,29.97,NNW,338,12.8,17.2,41,0.00,,,0.00,WUHU216HW,2013-06-19 23:24:00,
2013-06-19 16:29:00,62.6,39.2,29.97,WNW,293,6.5,17.2,42,0.00,,,0.00,WUHU216HW,2013-06-19 23:29:00,
2013-06-19 16:34:00,62.5,38.4,29.97,WSW,248,14.8,16.8,41,0.00,,,0.00,WUHU216HW,2013-06-19 23:34:00,
2013-06-19 16:39:00,62.1,38.1,29.97,SW,225,11.6,16.8,41,0.00,,,0.00,WUHU216HW,2013-06-19 23:39:00,
2013-06-19 16:44:00,62.1,38.1,29.98,WSW,248,11.0,17.9,41,0.00,,,0.00,WUHU216HW,2013-06-19 23:44:00,
2013-06-19 16:49:00,62.8,38.2,29.98,WSW,248,9.8,17.9,40,0.00,,,0.00,WUHU216HW,2013-06-19 23:49:00,
2013-06-19 16:54:00,63.9,39.2,29.98,WSW,248,8.5,15.7,40,0.00,,,0.00,WUHU216HW,2013-06-19 23:54:00,
2013-06-19 16:59:00,64.4,37.4,29.97,West,270,13.2,15.7,37,0.00,,,0.00,WUHU216HW,2013-06-19 23:59:00,
2013-06-19 17:04:00,63.9,37.7,29.97,WSW,248,8.5,18.3,38,0.00,,,0.00,WUHU216HW,2013-06-20 00:04:00,
2013-06-19 17:09:00,64.3,37.3,29.97,WNW,293,6.9,18.3,37,0.00,,,0.00,WUHU216HW,2013-06-20 00:09:00,
2013-06-19 17:14:00,63.9,37.7,29.98,SSW,203,9.8,15.4,38,0.00,,,0.00,WUHU216HW,2013-06-20 00:14:00,
2013-06-19 17:19:00,63.2,38.4,29.98,WSW,248,12.8,14.3,40,0.00,,,0.00,WUHU216HW,2013-06-20 00:19:00,
2013-06-19 17:24:00,63.0,38.4,29.98,NNW,338,3.6,14.3,40,0.00,,,0.00,WUHU216HW,2013-06-20 00:24:00,
2013-06-19 17:29:00,63.7,38.3,29.98,WNW,293,11.4,17.0,39,0.00,,,0.00,WUHU216HW,2013-06-20 00:29:00,
2013-06-19 17:34:00,61.9,39.1,29.98,WSW,248,14.8,18.6,43,0.00,,,0.00,WUHU216HW,2013-06-20 00:34:00,
2013-06-19 17:39:00,60.5,38.9,29.99,West,270,9.4,18.6,45,0.00,,,0.00,WUHU216HW,2013-06-20 00:39:00,
2013-06-19 17:44:00,60.1,38.6,29.99,South,180,6.9,19.2,45,0.00,,,0.00,WUHU216HW,2013-06-20 00:44:00,
2013-06-19 17:49:00,59.2,39.0,29.99,WSW,248,11.6,19.2,47,0.00,,,0.00,WUHU216HW,2013-06-20 00:49:00,
2013-06-19 17:54:00,59.8,39.4,29.99,WSW,248,13.0,16.1,47,0.00,,,0.00,WUHU216HW,2013-06-20 00:54:00,
2013-06-19 17:59:00,59.9,39.6,29.99,SW,225,10.5,16.1,47,0.00,,,0.00,WUHU216HW,2013-06-20 00:59:00,
2013-06-19 18:04:00,59.9,39.6,29.99,WSW,248,12.1,15.0,47,0.00,,,0.00,WUHU216HW,2013-06-20 01:04:00,
2013-06-19 18:09:00,60.8,39.8,29.99,WSW,248,7.2,13.9,46,0.00,,,0.00,WUHU216HW,2013-06-20 01:09:00,
2013-06-19 18:14:00,61.6,39.3,29.99,West,270,9.6,13.9,44,0.00,,,0.00,WUHU216HW,2013-06-20 01:14:00,
2013-06-19 18:19:00,60.7,39.7,30.00,SSW,203,10.7,14.3,46,0.00,,,0.00,WUHU216HW,2013-06-20 01:19:00,
2013-06-19 18:24:00,58.9,39.2,30.00,West,270,13.4,15.7,48,0.00,,,0.00,WUHU216HW,2013-06-20 01:24:00,
2013-06-19 18:29:00,58.3,38.7,30.00,SSW,203,11.6,16.3,48,0.00,,,0.00,WUHU216HW,2013-06-20 01:29:00,
2013-06-19 18:34:00,58.0,39.0,30.00,SW,225,10.1,16.3,49,0.00,,,0.00,WUHU216HW,2013-06-20 01:34:00,
2013-06-19 18:39:00,58.3,38.7,30.00,West,270,6.7,14.1,48,0.00,,,0.00,WUHU216HW,2013-06-20 01:39:00,
2013-06-19 18:44:00,58.7,38.4,30.01,SW,225,6.9,11.9,47,0.00,,,0.00,WUHU216HW,2013-06-20 01:44:00,
2013-06-19 18:49:00,58.5,38.3,30.01,WSW,248,4.7,13.4,47,0.00,,,0.00,WUHU216HW,2013-06-20 01:49:00,
2013-06-19 18:54:00,58.9,38.6,30.01,WNW,293,6.3,13.4,47,0.00,,,0.00,WUHU216HW,2013-06-20 01:54:00,
2013-06-19 18:59:00,59.0,38.2,30.01,WSW,248,8.5,12.5,46,0.00,,,0.00,WUHU216HW,2013-06-20 01:59:00,
2013-06-19 19:04:00,59.2,37.8,30.01,West,270,11.6,12.5,45,0.00,,,0.00,WUHU216HW,2013-06-20 02:04:00,
2013-06-19 19:09:00,59.0,38.2,30.01,West,270,10.3,12.5,46,0.00,,,0.00,WUHU216HW,2013-06-20 02:09:00,
2013-06-19 19:14:00,58.0,37.8,30.01,WNW,293,7.6,15.0,47,0.00,,,0.00,WUHU216HW,2013-06-20 02:14:00,
2013-06-19 19:19:00,57.2,37.7,30.01,WNW,293,5.4,15.0,48,0.00,,,0.00,WUHU216HW,2013-06-20 02:19:00,
2013-06-19 19:24:00,57.2,38.9,30.02,SW,225,8.9,11.2,50,0.00,,,0.00,WUHU216HW,2013-06-20 02:24:00,
2013-06-19 19:29:00,56.2,39.3,30.02,West,270,11.4,14.1,53,0.00,,,0.00,WUHU216HW,2013-06-20 02:29:00,
2013-06-19 19:34:00,55.8,39.3,30.02,WSW,248,10.5,14.1,54,0.00,,,0.00,WUHU216HW,2013-06-20 02:34:00,
2013-06-19 19:39:00,54.7,39.2,30.02,West,270,8.5,12.5,56,0.00,,,0.00,WUHU216HW,2013-06-20 02:39:00,
2013-06-19 19:44:00,54.4,39.4,30.03,SW,225,9.2,12.8,57,0.00,,,0.00,WUHU216HW,2013-06-20 02:44:00,
2013-06-19 19:49:00,53.3,39.3,30.02,SW,225,8.1,15.0,59,0.00,,,0.00,WUHU216HW,2013-06-20 02:49:00,
2013-06-19 19:54:00,53.1,39.2,30.03,WSW,248,9.2,15.0,59,0.00,,,0.00,WUHU216HW,2013-06-20 02:54:00,
2013-06-19 19:59:00,52.9,39.4,30.03,WSW,248,7.6,13.4,60,0.00,,,0.00,WUHU216HW,2013-06-20 02:59:00,
2013-06-19 20:04:00,53.5,39.5,30.03,SW,225,4.9,9.8,59,0.00,,,0.00,WUHU216HW,2013-06-20 03:04:00,
2013-06-19 20:09:00,53.5,39.5,30.03,SSW,203,4.0,9.8,59,0.00,,,0.00,WUHU216HW,2013-06-20 03:09:00,
2013-06-19 20:14:00,53.8,39.3,30.03,SW,225,2.7,8.1,58,0.00,,,0.00,WUHU216HW,2013-06-20 03:14:00,
2013-06-19 20:19:00,54.2,39.7,30.03,SW,225,3.4,7.4,58,0.00,,,0.00,WUHU216HW,2013-06-20 03:19:00,
2013-06-19 20:24:00,53.8,39.3,30.03,WSW,248,5.4,9.2,58,0.00,,,0.00,WUHU216HW,2013-06-20 03:24:00,
2013-06-19 20:29:00,53.5,39.1,30.04,SW,225,2.5,10.1,58,0.00,,,0.00,WUHU216HW,2013-06-20 03:29:00,
2013-06-19 20:34:00,52.7,39.2,30.04,SW,225,5.4,10.1,60,0.00,,,0.00,WUHU216HW,2013-06-20 03:34:00,
2013-06-19 20:39:00,52.0,39.0,30.04,SW,225,2.5,7.6,61,0.00,,,0.00,WUHU216HW,2013-06-20 03:39:00,
2013-06-19 20:44:00,51.8,39.6,30.04,West,270,5.4,7.6,63,0.00,,,0.00,WUHU216HW,2013-06-20 03:44:00,
2013-06-19 20:49:00,51.3,39.5,30.04,SSW,203,4.7,8.7,64,0.00,,,0.00,WUHU216HW,2013-06-20 03:49:00,
2013-06-19 20:54:00,50.9,39.2,30.05,SW,225,6.3,8.7,64,0.00,,,0.00,WUHU216HW,2013-06-20 03:54:00,
2013-06-19 20:59:00,50.8,39.4,30.05,SW,225,11.4,11.4,65,0.00,,,0.00,WUHU216HW,2013-06-20 03:59:00,
2013-06-19 21:03:00,50.6,39.3,30.04,SSW,203,7.6,11.4,65,0.00,,,0.00,WUHU216HW,2013-06-20 04:03:00,
2013-06-19 21:08:00,50.4,38.6,30.04,SSW,203,9.4,11.4,64,0.00,,,0.00,WUHU216HW,2013-06-20 04:08:00,
2013-06-19 21:13:00,50.4,38.6,30.05,WSW,248,9.4,9.6,64,0.00,,,0.00,WUHU216HW,2013-06-20 04:13:00,
2013-06-19 21:18:00,50.4,38.6,30.05,SSW,203,7.6,10.5,64,0.00,,,0.00,WUHU216HW,2013-06-20 04:18:00,
2013-06-19 21:23:00,50.4,38.6,30.05,WNW,293,7.4,13.2,64,0.00,,,0.00,WUHU216HW,2013-06-20 04:23:00,
2013-06-19 21:28:00,50.4,38.6,30.05,SW,225,2.0,13.2,64,0.00,,,0.00,WUHU216HW,2013-06-20 04:28:00,
2013-06-19 21:33:00,50.2,38.4,30.05,WSW,248,5.4,9.8,64,0.00,,,0.00,WUHU216HW,2013-06-20 04:33:00,
2013-06-19 21:38:00,50.2,38.4,30.05,WSW,248,6.0,10.5,64,0.00,,,0.00,WUHU216HW,2013-06-20 04:38:00,
2013-06-19 21:43:00,50.4,39.1,30.05,WNW,293,6.9,10.5,65,0.00,,,0.00,WUHU216HW,2013-06-20 04:43:00,
2013-06-19 21:48:00,50.4,39.1,30.05,WNW,293,4.0,9.4,65,0.00,,,0.00,WUHU216HW,2013-06-20 04:48:00,
2013-06-19 21:53:00,50.2,38.4,30.05,West,270,2.7,8.7,64,0.00,,,0.00,WUHU216HW,2013-06-20 04:53:00,
2013-06-19 21:58:00,50.2,38.4,30.05,WSW,248,4.3,7.8,64,0.00,,,0.00,WUHU216HW,2013-06-20 04:58:00,
2013-06-19 22:03:00,50.0,38.4,30.05,WSW,248,2.7,6.5,64,0.00,,,0.00,WUHU216HW,2013-06-20 05:03:00,
2013-06-19 22:08:00,50.0,38.4,30.05,WSW,248,4.7,5.4,64,0.00,,,0.00,WUHU216HW,2013-06-20 05:08:00,
2013-06-19 22:13:00,50.0,38.4,30.05,WSW,248,3.8,7.4,64,0.00,,,0.00,WUHU216HW,2013-06-20 05:13:00,
2013-06-19 22:18:00,50.0,38.4,30.05,WSW,248,5.1,7.4,64,0.00,,,0.00,WUHU216HW,2013-06-20 05:18:00,
2013-06-19 22:23:00,50.0,38.7,30.05,SW,225,8.3,9.6,65,0.00,,,0.00,WUHU216HW,2013-06-20 05:23:00,
2013-06-19 22:28:00,50.0,38.4,30.05,WSW,248,4.3,9.6,64,0.00,,,0.00,WUHU216HW,2013-06-20 05:28:00,
2013-06-19 22:33:00,50.0,38.7,30.05,West,270,2.5,9.2,65,0.00,,,0.00,WUHU216HW,2013-06-20 05:33:00,
2013-06-19 22:38:00,50.0,38.7,30.05,West,270,3.4,6.9,65,0.00,,,0.00,WUHU216HW,2013-06-20 05:38:00,
2013-06-19 22:43:00,49.9,38.5,30.05,WNW,293,5.4,8.1,65,0.00,,,0.00,WUHU216HW,2013-06-20 05:43:00,
2013-06-19 22:48:00,49.7,38.0,30.05,West,270,9.2,10.5,64,0.00,,,0.00,WUHU216HW,2013-06-20 05:48:00,
2013-06-19 22:53:00,49.7,38.0,30.05,West,270,4.9,11.4,64,0.00,,,0.00,WUHU216HW,2013-06-20 05:53:00,
2013-06-19 22:58:00,49.7,38.0,30.05,West,270,7.6,11.4,64,0.00,,,0.00,WUHU216HW,2013-06-20 05:58:00,
2013-06-19 23:03:00,49.5,37.8,30.05,SW,225,5.6,12.1,64,0.00,,,0.00,WUHU216HW,2013-06-20 06:03:00,
2013-06-19 23:08:00,49.3,38.0,30.05,WSW,248,6.9,12.1,65,0.00,,,0.00,WUHU216HW,2013-06-20 06:08:00,
2013-06-19 23:13:00,49.3,38.0,30.05,West,270,8.3,12.1,65,0.00,,,0.00,WUHU216HW,2013-06-20 06:13:00,
2013-06-19 23:18:00,49.3,38.0,30.05,SW,225,4.0,11.0,65,0.00,,,0.00,WUHU216HW,2013-06-20 06:18:00,
2013-06-19 23:23:00,49.0,38.4,30.05,SW,225,7.8,11.0,67,0.00,,,0.00,WUHU216HW,2013-06-20 06:23:00,
2013-06-19 23:28:00,48.8,38.3,30.05,WSW,248,4.3,12.1,67,0.00,,,0.00,WUHU216HW,2013-06-20 06:28:00,
2013-06-19 23:33:00,48.6,38.5,30.05,SW,225,4.5,12.1,68,0.00,,,0.00,WUHU216HW,2013-06-20 06:33:00,
2013-06-19 23:38:00,48.6,38.5,30.05,WSW,248,1.1,6.7,68,0.00,,,0.00,WUHU216HW,2013-06-20 06:38:00,
2013-06-19 23:43:00,48.2,38.2,30.05,WSW,248,2.5,6.3,68,0.00,,,0.00,WUHU216HW,2013-06-20 06:43:00,
2013-06-19 23:48:00,48.2,38.2,30.05,WSW,248,4.0,6.5,68,0.00,,,0.00,WUHU216HW,2013-06-20 06:48:00,
2013-06-19 23:53:00,48.4,38.4,30.04,West,270,5.1,8.7,68,0.00,,,0.00,WUHU216HW,2013-06-20 06:53:00,
2013-06-19 23:58:00,48.6,37.7,30.04,SW,225,9.4,10.3,66,0.00,,,0.00,WUHU216HW,2013-06-20 06:58:00,